Starlink 33622

operational
NORAD ID: 63066 Int'l Des: 2025-035 Owner: SPXS Country: US Constellation: starlink
LEOCIRCULAR

Über Starlink 33622

Beschreibung wird geladen...

Live-Position

3D-Globus wird geladen...

Nächste Überflüge

Höhenverlauf

Altitude vs Time

uPlot chart will show altitude changes over time

Zweizeiliger Elementsatz

1 63066U 25035Q 25257.47859964 .00015752 00000-0 58038-3 0 9996
2 63066 42.9976 61.9520 0000252 100.8596 259.2284 15.27597493 32785
Epoch: 14. Sept. 2025 • Age: 31 hours

Aktueller Status

Höhe 491.5 km
Geschwindigkeit 7.62 km/s
Subsatellitenpunkt -31.29°S, 5.63°E
Startdatum 21. Feb. 2025
Alter 0.5 years
Typ internet

Technische Details

Klassifizierung Payload
Masse 575.00 kg
Trockenmasse 530.00 kg
Gesamtmasse 575.00 kg
Länge 0.30 m
Durchmesser 4.10 m
Spannweite 29.00 m
Form Box + pan
Hersteller SPXS
Bus-Typ Starlink V2MO
Phasenstatus In Orbit
Besitzer/Staat SPXS/US

Große Konstellationen

Loading constellations...